Time,TemperatureF,DewpointF,PressureIn,WindDirection,WindDirectionDegrees,WindSpeedMPH,WindSpeedGustMPH,Humidity,HourlyPrecipIn,Conditions,Clouds,dailyrainin,SoftwareType,DateUTC
2013-08-19 00:01:00,74.9,60.5,29.93,East,100,0.0,0.0,61,0.00,,,0.00,WeatherCatV1.15B25,2013-08-19 05:01:00,
2013-08-19 00:06:00,74.9,60.5,29.93,ESE,118,0.0,0.0,61,0.00,,,0.00,WeatherCatV1.15B25,2013-08-19 05:06:00,
2013-08-19 00:11:00,74.9,61.0,29.93,East,84,0.0,0.0,62,0.00,,,0.00,WeatherCatV1.15B25,2013-08-19 05:11:00,
2013-08-19 00:16:00,75.0,61.1,29.93,East,80,0.0,0.0,62,0.00,,,0.00,WeatherCatV1.15B25,2013-08-19 05:16:00,
2013-08-19 00:21:00,75.0,61.1,29.93,ESE,105,0.0,0.0,62,0.00,,,0.00,WeatherCatV1.15B25,2013-08-19 05:21:00,
2013-08-19 00:26:00,75.1,61.6,29.93,ESE,119,0.0,0.0,63,0.00,,,0.00,WeatherCatV1.15B25,2013-08-19 05:26:00,
2013-08-19 00:31:00,75.1,61.6,29.93,ENE,76,0.0,0.0,63,0.00,,,0.00,WeatherCatV1.15B25,2013-08-19 05:31:00,
2013-08-19 00:36:00,75.2,61.7,29.93,ENE,71,1.0,1.0,63,0.00,,,0.00,WeatherCatV1.15B25,2013-08-19 05:36:00,
2013-08-19 00:41:00,75.2,61.7,29.93,East,86,0.0,1.0,63,0.00,,,0.00,WeatherCatV1.15B25,2013-08-19 05:41:00,
2013-08-19 00:46:00,75.2,62.2,29.93,SE,128,0.0,0.0,64,0.00,,,0.00,WeatherCatV1.15B25,2013-08-19 05:46:00,
2013-08-19 00:51:00,75.3,62.3,29.93,East,83,0.0,1.0,64,0.00,,,0.00,WeatherCatV1.15B25,2013-08-19 05:51:00,
2013-08-19 00:56:00,75.3,62.7,29.93,East,95,0.0,0.0,65,0.00,,,0.00,WeatherCatV1.15B25,2013-08-19 05:56:00,
2013-08-19 01:01:00,75.3,62.7,29.93,East,101,0.0,0.0,65,0.00,,,0.00,WeatherCatV1.15B25,2013-08-19 06:01:00,
2013-08-19 01:06:00,75.3,63.1,29.93,ESE,117,0.0,1.0,66,0.00,,,0.00,WeatherCatV1.15B25,2013-08-19 06:06:00,
2013-08-19 01:11:00,75.3,63.1,29.93,East,89,0.0,2.0,66,0.00,,,0.00,WeatherCatV1.15B25,2013-08-19 06:11:00,
2013-08-19 01:16:00,75.3,63.6,29.93,ESE,103,0.0,1.0,67,0.00,,,0.00,WeatherCatV1.15B25,2013-08-19 06:16:00,
2013-08-19 01:21:00,75.3,63.6,29.93,East,100,0.0,2.0,67,0.00,,,0.00,WeatherCatV1.15B25,2013-08-19 06:21:00,
2013-08-19 01:26:00,75.3,63.6,29.93,East,101,0.0,4.0,67,0.00,,,0.00,WeatherCatV1.15B25,2013-08-19 06:26:00,
2013-08-19 01:31:00,75.3,63.6,29.92,ESE,105,0.0,2.0,67,0.00,,,0.00,WeatherCatV1.15B25,2013-08-19 06:31:00,
2013-08-19 01:36:00,75.3,64.0,29.92,ESE,103,0.0,3.0,68,0.00,,,0.00,WeatherCatV1.15B25,2013-08-19 06:36:00,
2013-08-19 01:41:00,75.2,63.9,29.92,East,94,0.0,1.0,68,0.00,,,0.00,WeatherCatV1.15B25,2013-08-19 06:41:00,
2013-08-19 01:46:00,75.2,64.3,29.92,SE,138,0.0,1.0,69,0.00,,,0.00,WeatherCatV1.15B25,2013-08-19 06:46:00,
2013-08-19 01:51:00,75.2,64.3,29.92,SE,131,0.0,1.0,69,0.00,,,0.00,WeatherCatV1.15B25,2013-08-19 06:51:00,
2013-08-19 01:56:00,75.2,64.3,29.92,East,86,0.0,2.0,69,0.00,,,0.00,WeatherCatV1.15B25,2013-08-19 06:56:00,
2013-08-19 02:01:00,75.1,64.2,29.93,ENE,73,0.0,2.0,69,0.00,,,0.00,WeatherCatV1.15B25,2013-08-19 07:01:00,
2013-08-19 02:06:00,75.1,64.6,29.93,ENE,75,0.0,1.0,70,0.00,,,0.00,WeatherCatV1.15B25,2013-08-19 07:06:00,
2013-08-19 02:11:00,75.0,64.5,29.93,East,101,0.0,10.0,70,0.00,,,0.00,WeatherCatV1.15B25,2013-08-19 07:11:00,
2013-08-19 02:16:00,75.0,64.5,29.92,NE,53,0.0,1.0,70,0.00,,,0.00,WeatherCatV1.15B25,2013-08-19 07:16:00,
2013-08-19 02:21:00,74.9,64.4,29.92,ESE,107,0.0,3.0,70,0.00,,,0.00,WeatherCatV1.15B25,2013-08-19 07:21:00,
2013-08-19 02:26:00,74.9,64.4,29.92,NE,53,0.0,0.0,70,0.00,,,0.00,WeatherCatV1.15B25,2013-08-19 07:26:00,
2013-08-19 02:31:00,74.8,64.8,29.92,ESE,113,0.0,3.0,71,0.00,,,0.00,WeatherCatV1.15B25,2013-08-19 07:31:00,
2013-08-19 02:36:00,74.6,64.6,29.92,East,88,0.0,3.0,71,0.00,,,0.00,WeatherCatV1.15B25,2013-08-19 07:36:00,
2013-08-19 02:41:00,74.6,65.0,29.92,ESE,109,0.0,4.0,72,0.00,,,0.00,WeatherCatV1.15B25,2013-08-19 07:41:00,
2013-08-19 02:46:00,74.4,64.8,29.92,NNE,26,0.0,1.0,72,0.00,,,0.00,WeatherCatV1.15B25,2013-08-19 07:46:00,
2013-08-19 02:51:00,74.4,64.8,29.92,East,92,0.0,3.0,72,0.00,,,0.00,WeatherCatV1.15B25,2013-08-19 07:51:00,
2013-08-19 02:56:00,74.2,65.0,29.92,SE,143,4.0,5.0,73,0.00,,,0.00,WeatherCatV1.15B25,2013-08-19 07:56:00,
2013-08-19 03:01:00,74.2,65.0,29.92,SE,133,0.0,1.0,73,0.00,,,0.00,WeatherCatV1.15B25,2013-08-19 08:01:00,
2013-08-19 03:06:00,74.1,64.9,29.92,ESE,105,0.0,1.0,73,0.00,,,0.00,WeatherCatV1.15B25,2013-08-19 08:06:00,
2013-08-19 03:11:00,74.0,64.8,29.92,NNE,21,0.0,3.0,73,0.00,,,0.00,WeatherCatV1.15B25,2013-08-19 08:11:00,
2013-08-19 03:16:00,73.9,64.7,29.92,ENE,76,0.0,4.0,73,0.00,,,0.00,WeatherCatV1.15B25,2013-08-19 08:16:00,
2013-08-19 03:21:00,73.7,64.9,29.92,East,99,0.0,3.0,74,0.00,,,0.00,WeatherCatV1.15B25,2013-08-19 08:21:00,
2013-08-19 03:26:00,73.6,64.8,29.92,East,88,0.0,1.0,74,0.00,,,0.00,WeatherCatV1.15B25,2013-08-19 08:26:00,
2013-08-19 03:31:00,73.5,65.1,29.92,NNE,23,0.0,0.0,75,0.00,,,0.00,WeatherCatV1.15B25,2013-08-19 08:31:00,
2013-08-19 03:36:00,73.4,65.0,29.92,ESE,115,0.0,4.0,75,0.00,,,0.00,WeatherCatV1.15B25,2013-08-19 08:36:00,
2013-08-19 03:41:00,73.3,64.9,29.92,ESE,113,0.0,1.0,75,0.00,,,0.00,WeatherCatV1.15B25,2013-08-19 08:41:00,
2013-08-19 03:46:00,73.2,64.8,29.92,East,92,0.0,0.0,75,0.00,,,0.00,WeatherCatV1.15B25,2013-08-19 08:46:00,
2013-08-19 03:51:00,73.1,64.7,29.92,ESE,117,0.0,0.0,75,0.00,,,0.00,WeatherCatV1.15B25,2013-08-19 08:51:00,
2013-08-19 03:56:00,73.0,64.6,29.92,ENE,65,0.0,4.0,75,0.00,,,0.00,WeatherCatV1.15B25,2013-08-19 08:56:00,
2013-08-19 04:01:00,73.0,65.0,29.92,ENE,63,0.0,3.0,76,0.00,,,0.00,WeatherCatV1.15B25,2013-08-19 09:01:00,
2013-08-19 04:06:00,72.9,64.9,29.92,NNE,32,0.0,3.0,76,0.00,,,0.00,WeatherCatV1.15B25,2013-08-19 09:06:00,
2013-08-19 04:11:00,72.8,64.8,29.92,East,95,0.0,3.0,76,0.00,,,0.00,WeatherCatV1.15B25,2013-08-19 09:11:00,
2013-08-19 04:16:00,72.7,65.1,29.92,East,82,0.0,1.0,77,0.00,,,0.00,WeatherCatV1.15B25,2013-08-19 09:16:00,
2013-08-19 04:21:00,72.6,65.0,29.92,SE,133,0.0,2.0,77,0.00,,,0.00,WeatherCatV1.15B25,2013-08-19 09:21:00,
2013-08-19 04:26:00,72.5,64.9,29.92,ESE,123,0.0,1.0,77,0.00,,,0.00,WeatherCatV1.15B25,2013-08-19 09:26:00,
2013-08-19 04:31:00,72.4,64.8,29.92,NE,51,0.0,0.0,77,0.00,,,0.00,WeatherCatV1.15B25,2013-08-19 09:31:00,
2013-08-19 04:36:00,72.3,65.0,29.92,SSE,165,0.0,4.0,78,0.00,,,0.00,WeatherCatV1.15B25,2013-08-19 09:36:00,
2013-08-19 04:41:00,72.2,64.9,29.92,SE,125,3.0,3.0,78,0.00,,,0.00,WeatherCatV1.15B25,2013-08-19 09:41:00,
2013-08-19 04:46:00,72.1,64.8,29.92,SE,129,0.0,1.0,78,0.00,,,0.00,WeatherCatV1.15B25,2013-08-19 09:46:00,
2013-08-19 04:51:00,72.1,64.8,29.92,SE,143,0.0,7.0,78,0.00,,,0.00,WeatherCatV1.15B25,2013-08-19 09:51:00,
2013-08-19 04:56:00,72.0,65.1,29.92,East,87,4.0,5.0,79,0.00,,,0.00,WeatherCatV1.15B25,2013-08-19 09:56:00,
2013-08-19 05:01:00,72.0,65.1,29.92,ESE,105,0.0,6.0,79,0.00,,,0.00,WeatherCatV1.15B25,2013-08-19 10:01:00,
2013-08-19 05:06:00,71.9,65.0,29.92,SE,140,0.0,5.0,79,0.00,,,0.00,WeatherCatV1.15B25,2013-08-19 10:06:00,
2013-08-19 05:11:00,71.8,64.9,29.92,SE,146,0.0,2.0,79,0.00,,,0.00,WeatherCatV1.15B25,2013-08-19 10:11:00,
2013-08-19 05:16:00,71.8,64.9,29.92,SSE,153,0.0,1.0,79,0.00,,,0.00,WeatherCatV1.15B25,2013-08-19 10:16:00,
2013-08-19 05:21:00,71.7,65.2,29.92,East,96,0.0,3.0,80,0.00,,,0.00,WeatherCatV1.15B25,2013-08-19 10:21:00,
2013-08-19 05:26:00,71.6,65.1,29.92,SE,128,0.0,2.0,80,0.00,,,0.00,WeatherCatV1.15B25,2013-08-19 10:26:00,
2013-08-19 05:31:00,71.5,65.0,29.92,ESE,122,0.0,0.0,80,0.00,,,0.00,WeatherCatV1.15B25,2013-08-19 10:31:00,
2013-08-19 05:36:00,71.5,65.0,29.92,East,84,0.0,4.0,80,0.00,,,0.00,WeatherCatV1.15B25,2013-08-19 10:36:00,
2013-08-19 05:41:00,71.4,64.9,29.92,SSE,150,0.0,0.0,80,0.00,,,0.00,WeatherCatV1.15B25,2013-08-19 10:41:00,
2013-08-19 05:46:00,71.3,65.2,29.92,East,94,0.0,1.0,81,0.00,,,0.00,WeatherCatV1.15B25,2013-08-19 10:46:00,
2013-08-19 05:51:00,71.3,65.2,29.92,ESE,121,0.0,0.0,81,0.00,,,0.00,WeatherCatV1.15B25,2013-08-19 10:51:00,
2013-08-19 05:56:00,71.2,65.1,29.92,ENE,77,0.0,1.0,81,0.00,,,0.00,WeatherCatV1.15B25,2013-08-19 10:56:00,
2013-08-19 06:01:00,71.3,65.2,29.92,ESE,119,1.0,1.0,81,0.00,,,0.00,WeatherCatV1.15B25,2013-08-19 11:01:00,
2013-08-19 06:06:00,71.3,65.2,29.92,SSE,148,0.0,0.0,81,0.00,,,0.00,WeatherCatV1.15B25,2013-08-19 11:06:00,
2013-08-19 06:11:00,71.3,65.2,29.92,SE,140,0.0,4.0,81,0.00,,,0.00,WeatherCatV1.15B25,2013-08-19 11:11:00,
2013-08-19 06:16:00,71.3,65.2,29.93,ESE,107,1.0,2.0,81,0.00,,,0.00,WeatherCatV1.15B25,2013-08-19 11:16:00,
2013-08-19 06:21:00,71.4,65.3,29.93,East,96,0.0,4.0,81,0.00,,,0.00,WeatherCatV1.15B25,2013-08-19 11:21:00,
2013-08-19 06:26:00,71.4,65.3,29.93,ESE,123,0.0,5.0,81,0.00,,,0.00,WeatherCatV1.15B25,2013-08-19 11:26:00,
2013-08-19 06:31:00,71.4,65.3,29.94,SSE,153,2.0,3.0,81,0.00,,,0.00,WeatherCatV1.15B25,2013-08-19 11:31:00,
2013-08-19 06:36:00,71.3,65.2,29.94,South,169,0.0,3.0,81,0.00,,,0.00,WeatherCatV1.15B25,2013-08-19 11:36:00,
2013-08-19 06:41:00,71.3,65.2,29.94,NNW,348,1.0,1.0,81,0.00,,,0.00,WeatherCatV1.15B25,2013-08-19 11:41:00,
2013-08-19 06:46:00,71.3,65.2,29.94,SE,135,0.0,5.0,81,0.00,,,0.00,WeatherCatV1.15B25,2013-08-19 11:46:00,
2013-08-19 06:51:00,71.2,65.1,29.94,SE,133,0.0,1.0,81,0.00,,,0.00,WeatherCatV1.15B25,2013-08-19 11:51:00,
2013-08-19 06:56:00,71.2,65.1,29.94,East,80,0.0,0.0,81,0.00,,,0.00,WeatherCatV1.15B25,2013-08-19 11:56:00,
2013-08-19 07:01:00,71.2,65.1,29.94,East,91,0.0,3.0,81,0.00,,,0.00,WeatherCatV1.15B25,2013-08-19 12:01:00,
2013-08-19 07:06:00,71.2,65.1,29.94,East,100,0.0,4.0,81,0.00,,,0.00,WeatherCatV1.15B25,2013-08-19 12:06:00,
2013-08-19 07:11:00,71.2,65.4,29.94,East,80,0.0,6.0,82,0.00,,,0.00,WeatherCatV1.15B25,2013-08-19 12:11:00,
2013-08-19 07:16:00,71.2,65.1,29.95,SSE,156,0.0,0.0,81,0.00,,,0.00,WeatherCatV1.15B25,2013-08-19 12:16:00,
2013-08-19 07:21:00,71.2,65.4,29.95,ESE,114,0.0,4.0,82,0.00,,,0.00,WeatherCatV1.15B25,2013-08-19 12:21:00,
2013-08-19 07:26:00,71.3,65.5,29.95,ESE,105,0.0,0.0,82,0.00,,,0.00,WeatherCatV1.15B25,2013-08-19 12:26:00,
2013-08-19 07:31:00,71.3,65.5,29.96,ESE,102,1.0,5.0,82,0.00,,,0.00,WeatherCatV1.15B25,2013-08-19 12:31:00,
2013-08-19 07:36:00,71.4,65.6,29.96,ESE,104,0.0,1.0,82,0.00,,,0.00,WeatherCatV1.15B25,2013-08-19 12:36:00,
2013-08-19 07:41:00,71.5,65.7,29.96,ESE,123,0.0,4.0,82,0.00,,,0.00,WeatherCatV1.15B25,2013-08-19 12:41:00,
2013-08-19 07:46:00,71.6,65.8,29.96,SSE,151,1.0,4.0,82,0.00,,,0.00,WeatherCatV1.15B25,2013-08-19 12:46:00,
2013-08-19 07:51:00,71.7,65.5,29.96,SE,136,0.0,0.0,81,0.00,,,0.00,WeatherCatV1.15B25,2013-08-19 12:51:00,
2013-08-19 07:56:00,71.9,65.7,29.96,ENE,75,0.0,4.0,81,0.00,,,0.00,WeatherCatV1.15B25,2013-08-19 12:56:00,
2013-08-19 08:01:00,72.1,65.9,29.96,ESE,112,3.0,6.0,81,0.00,,,0.00,WeatherCatV1.15B25,2013-08-19 13:01:00,
2013-08-19 08:06:00,72.2,66.0,29.96,SSE,151,3.0,3.0,81,0.00,,,0.00,WeatherCatV1.15B25,2013-08-19 13:06:00,
2013-08-19 08:11:00,72.5,66.0,29.96,East,90,3.0,5.0,80,0.00,,,0.00,WeatherCatV1.15B25,2013-08-19 13:11:00,
2013-08-19 08:16:00,72.7,66.2,29.97,SE,138,0.0,4.0,80,0.00,,,0.00,WeatherCatV1.15B25,2013-08-19 13:16:00,
2013-08-19 08:21:00,73.0,66.5,29.97,SSW,200,0.0,0.0,80,0.00,,,0.00,WeatherCatV1.15B25,2013-08-19 13:21:00,
2013-08-19 08:26:00,73.3,66.4,29.97,SSW,197,1.0,5.0,79,0.00,,,0.00,WeatherCatV1.15B25,2013-08-19 13:26:00,
2013-08-19 08:31:00,73.7,66.8,29.97,SE,124,0.0,3.0,79,0.00,,,0.00,WeatherCatV1.15B25,2013-08-19 13:31:00,
2013-08-19 08:36:00,74.0,66.7,29.97,South,190,0.0,0.0,78,0.00,,,0.00,WeatherCatV1.15B25,2013-08-19 13:36:00,
2013-08-19 08:41:00,74.4,66.7,29.97,SSE,157,0.0,7.0,77,0.00,,,0.00,WeatherCatV1.15B25,2013-08-19 13:41:00,
2013-08-19 08:46:00,74.8,66.7,29.97,SE,144,0.0,3.0,76,0.00,,,0.00,WeatherCatV1.15B25,2013-08-19 13:46:00,
2013-08-19 08:51:00,75.1,67.0,29.97,SW,232,0.0,5.0,76,0.00,,,0.00,WeatherCatV1.15B25,2013-08-19 13:51:00,
2013-08-19 08:56:00,75.6,67.1,29.97,SW,215,3.0,6.0,75,0.00,,,0.00,WeatherCatV1.15B25,2013-08-19 13:56:00,
2013-08-19 09:01:00,76.0,67.5,29.98,South,175,0.0,0.0,75,0.00,,,0.00,WeatherCatV1.15B25,2013-08-19 14:01:00,
2013-08-19 09:06:00,76.4,67.9,29.98,South,170,0.0,0.0,75,0.00,,,0.00,WeatherCatV1.15B25,2013-08-19 14:06:00,
2013-08-19 09:11:00,76.9,68.4,29.98,SSW,200,0.0,3.0,75,0.00,,,0.00,WeatherCatV1.15B25,2013-08-19 14:11:00,
2013-08-19 09:17:00,77.4,68.0,29.98,SSE,154,0.0,0.0,73,0.00,,,0.00,WeatherCatV1.15B25,2013-08-19 14:17:00,
2013-08-19 09:22:00,77.9,68.5,29.98,South,177,0.0,1.0,73,0.00,,,0.00,WeatherCatV1.15B25,2013-08-19 14:22:00,
2013-08-19 09:27:00,78.4,68.2,29.98,SE,135,0.0,0.0,71,0.00,,,0.00,WeatherCatV1.15B25,2013-08-19 14:27:00,
2013-08-19 09:32:00,79.0,68.4,29.98,SSE,154,2.0,4.0,70,0.00,,,0.00,WeatherCatV1.15B25,2013-08-19 14:32:00,
2013-08-19 09:37:00,79.6,68.5,29.98,ESE,103,1.0,7.0,69,0.00,,,0.00,WeatherCatV1.15B25,2013-08-19 14:37:00,
2013-08-19 09:42:00,80.1,68.6,29.98,SSE,152,1.0,7.0,68,0.00,,,0.00,WeatherCatV1.15B25,2013-08-19 14:42:00,
2013-08-19 09:47:00,80.6,68.6,29.98,ENE,70,1.0,3.0,67,0.00,,,0.00,WeatherCatV1.15B25,2013-08-19 14:47:00,
2013-08-19 09:52:00,81.1,68.6,29.98,SSW,198,2.0,8.0,66,0.00,,,0.00,WeatherCatV1.15B25,2013-08-19 14:52:00,
2013-08-19 09:57:00,81.7,69.2,29.98,South,180,0.0,5.0,66,0.00,,,0.00,WeatherCatV1.15B25,2013-08-19 14:57:00,
2013-08-19 10:02:00,82.1,69.1,29.99,SW,214,5.0,9.0,65,0.00,,,0.00,WeatherCatV1.15B25,2013-08-19 15:02:00,
2013-08-19 10:07:00,82.6,69.2,29.99,SSW,195,0.0,0.0,64,0.00,,,0.00,WeatherCatV1.15B25,2013-08-19 15:07:00,
2013-08-19 10:12:00,83.4,69.0,29.99,ESE,123,0.0,7.0,62,0.00,,,0.00,WeatherCatV1.15B25,2013-08-19 15:12:00,
2013-08-19 10:17:00,84.2,69.3,29.99,SW,231,0.0,7.0,61,0.00,,,0.00,WeatherCatV1.15B25,2013-08-19 15:17:00,
2013-08-19 10:22:00,84.9,69.9,29.99,South,186,1.0,6.0,61,0.00,,,0.00,WeatherCatV1.15B25,2013-08-19 15:22:00,
2013-08-19 10:27:00,85.5,69.0,29.99,South,178,0.0,4.0,58,0.00,,,0.00,WeatherCatV1.15B25,2013-08-19 15:27:00,
2013-08-19 10:32:00,86.2,70.2,29.98,SE,131,3.0,7.0,59,0.00,,,0.00,WeatherCatV1.15B25,2013-08-19 15:32:00,
2013-08-19 10:37:00,86.9,69.8,29.98,ESE,116,2.0,4.0,57,0.00,,,0.00,WeatherCatV1.15B25,2013-08-19 15:37:00,
2013-08-19 10:42:00,87.5,68.8,29.98,South,188,1.0,4.0,54,0.00,,,0.00,WeatherCatV1.15B25,2013-08-19 15:42:00,
2013-08-19 10:47:00,88.2,70.0,29.98,SW,219,1.0,9.0,55,0.00,,,0.00,WeatherCatV1.15B25,2013-08-19 15:47:00,
2013-08-19 10:52:00,88.6,69.2,29.98,SSE,163,3.0,10.0,53,0.00,,,0.00,WeatherCatV1.15B25,2013-08-19 15:52:00,
2013-08-19 10:57:00,89.1,69.7,29.98,South,181,1.0,6.0,53,0.00,,,0.00,WeatherCatV1.15B25,2013-08-19 15:57:00,
2013-08-19 11:02:00,89.6,70.2,29.98,South,178,1.0,6.0,53,0.00,,,0.00,WeatherCatV1.15B25,2013-08-19 16:02:00,
2013-08-19 11:07:00,89.9,69.9,29.98,South,182,3.0,7.0,52,0.00,,,0.00,WeatherCatV1.15B25,2013-08-19 16:07:00,
2013-08-19 11:12:00,90.0,69.4,29.98,WSW,238,3.0,8.0,51,0.00,,,0.00,WeatherCatV1.15B25,2013-08-19 16:12:00,
2013-08-19 11:17:00,90.2,69.6,29.97,SSE,163,4.0,8.0,51,0.00,,,0.00,WeatherCatV1.15B25,2013-08-19 16:17:00,
2013-08-19 11:22:00,90.5,69.3,29.97,SW,232,1.0,4.0,50,0.00,,,0.00,WeatherCatV1.15B25,2013-08-19 16:22:00,
2013-08-19 11:27:00,90.9,70.8,29.97,SW,227,1.0,4.0,52,0.00,,,0.00,WeatherCatV1.15B25,2013-08-19 16:27:00,
2013-08-19 11:32:00,91.4,69.5,29.97,South,180,0.0,8.0,49,0.00,,,0.00,WeatherCatV1.15B25,2013-08-19 16:32:00,
2013-08-19 11:37:00,91.7,69.8,29.97,SW,231,3.0,4.0,49,0.00,,,0.00,WeatherCatV1.15B25,2013-08-19 16:37:00,
2013-08-19 11:42:00,91.8,67.4,29.97,South,179,2.0,6.0,45,0.00,,,0.00,WeatherCatV1.15B25,2013-08-19 16:42:00,
2013-08-19 11:47:00,91.8,66.1,29.97,East,90,4.0,7.0,43,0.00,,,0.00,WeatherCatV1.15B25,2013-08-19 16:47:00,
2013-08-19 11:52:00,92.1,68.3,29.97,SSW,195,3.0,5.0,46,0.00,,,0.00,WeatherCatV1.15B25,2013-08-19 16:52:00,
2013-08-19 11:57:00,92.6,66.1,29.97,SSE,148,0.0,4.0,42,0.00,,,0.00,WeatherCatV1.15B25,2013-08-19 16:57:00,
2013-08-19 12:02:00,92.9,67.1,29.97,South,178,4.0,6.0,43,0.00,,,0.00,WeatherCatV1.15B25,2013-08-19 17:02:00,
2013-08-19 12:07:00,92.9,65.0,29.97,ESE,114,0.0,3.0,40,0.00,,,0.00,WeatherCatV1.15B25,2013-08-19 17:07:00,
2013-08-19 12:12:00,93.2,67.3,29.97,SW,215,0.0,5.0,43,0.00,,,0.00,WeatherCatV1.15B25,2013-08-19 17:12:00,
2013-08-19 12:17:00,93.3,66.0,29.96,South,170,3.0,12.0,41,0.00,,,0.00,WeatherCatV1.15B25,2013-08-19 17:17:00,
2013-08-19 12:22:00,93.3,65.3,29.96,SE,130,0.0,2.0,40,0.00,,,0.00,WeatherCatV1.15B25,2013-08-19 17:22:00,
2013-08-19 12:27:00,93.7,64.9,29.96,SE,126,1.0,2.0,39,0.00,,,0.00,WeatherCatV1.15B25,2013-08-19 17:27:00,
2013-08-19 12:32:00,94.0,62.9,29.96,South,174,1.0,1.0,36,0.00,,,0.00,WeatherCatV1.15B25,2013-08-19 17:32:00,
2013-08-19 12:37:00,94.4,64.1,29.96,SSW,209,1.0,2.0,37,0.00,,,0.00,WeatherCatV1.15B25,2013-08-19 17:37:00,
2013-08-19 12:42:00,94.4,62.5,29.96,WSW,253,1.0,1.0,35,0.00,,,0.00,WeatherCatV1.15B25,2013-08-19 17:42:00,
2013-08-19 12:47:00,94.6,64.2,29.95,NNE,29,0.0,2.0,37,0.00,,,0.00,WeatherCatV1.15B25,2013-08-19 17:47:00,
2013-08-19 12:52:00,94.9,63.7,29.95,SSW,204,2.0,4.0,36,0.00,,,0.00,WeatherCatV1.15B25,2013-08-19 17:52:00,
2013-08-19 12:57:00,95.1,63.9,29.95,WSW,243,2.0,7.0,36,0.00,,,0.00,WeatherCatV1.15B25,2013-08-19 17:57:00,
2013-08-19 13:02:00,95.1,62.3,29.95,South,181,3.0,5.0,34,0.00,,,0.00,WeatherCatV1.15B25,2013-08-19 18:02:00,
2013-08-19 13:07:00,95.0,63.8,29.95,SSW,208,2.0,5.0,36,0.00,,,0.00,WeatherCatV1.15B25,2013-08-19 18:07:00,
2013-08-19 13:12:00,95.0,63.8,29.95,SSE,149,5.0,5.0,36,0.00,,,0.00,WeatherCatV1.15B25,2013-08-19 18:12:00,
2013-08-19 13:17:00,95.2,64.8,29.94,South,172,2.0,3.0,37,0.00,,,0.00,WeatherCatV1.15B25,2013-08-19 18:17:00,
2013-08-19 13:22:00,95.4,66.5,29.94,NNE,26,0.0,1.0,39,0.00,,,0.00,WeatherCatV1.15B25,2013-08-19 18:22:00,
2013-08-19 13:27:00,95.8,64.5,29.94,South,182,1.0,2.0,36,0.00,,,0.00,WeatherCatV1.15B25,2013-08-19 18:27:00,
2013-08-19 13:32:00,95.6,64.3,29.94,SSW,203,1.0,3.0,36,0.00,,,0.00,WeatherCatV1.15B25,2013-08-19 18:32:00,
2013-08-19 13:37:00,95.5,63.4,29.94,South,170,1.0,1.0,35,0.00,,,0.00,WeatherCatV1.15B25,2013-08-19 18:37:00,
2013-08-19 13:42:00,95.7,65.2,29.94,SSE,155,1.0,2.0,37,0.00,,,0.00,WeatherCatV1.15B25,2013-08-19 18:42:00,
2013-08-19 13:47:00,95.8,64.5,29.93,SSW,197,0.0,2.0,36,0.00,,,0.00,WeatherCatV1.15B25,2013-08-19 18:47:00,
2013-08-19 13:52:00,95.9,63.8,29.93,SW,224,1.0,3.0,35,0.00,,,0.00,WeatherCatV1.15B25,2013-08-19 18:52:00,
2013-08-19 13:57:00,95.6,63.5,29.93,WNW,286,0.0,2.0,35,0.00,,,0.00,WeatherCatV1.15B25,2013-08-19 18:57:00,
2013-08-19 14:02:00,95.7,64.4,29.93,SE,134,0.0,0.0,36,0.00,,,0.00,WeatherCatV1.15B25,2013-08-19 19:02:00,
2013-08-19 14:07:00,96.1,65.6,29.93,West,263,1.0,2.0,37,0.00,,,0.00,WeatherCatV1.15B25,2013-08-19 19:07:00,
2013-08-19 14:12:00,96.4,64.2,29.93,SSW,205,3.0,4.0,35,0.00,,,0.00,WeatherCatV1.15B25,2013-08-19 19:12:00,
2013-08-19 14:17:00,96.3,63.3,29.92,SW,226,2.0,5.0,34,0.00,,,0.00,WeatherCatV1.15B25,2013-08-19 19:17:00,
2013-08-19 14:22:00,96.3,64.1,29.92,SW,219,0.0,0.0,35,0.00,,,0.00,WeatherCatV1.15B25,2013-08-19 19:22:00,
2013-08-19 14:27:00,96.6,66.0,29.92,SSW,210,1.0,3.0,37,0.00,,,0.00,WeatherCatV1.15B25,2013-08-19 19:27:00,
2013-08-19 14:32:00,96.9,63.0,29.92,SSE,164,0.0,2.0,33,0.00,,,0.00,WeatherCatV1.15B25,2013-08-19 19:32:00,
2013-08-19 14:37:00,97.3,64.2,29.92,WNW,296,1.0,3.0,34,0.00,,,0.00,WeatherCatV1.15B25,2013-08-19 19:37:00,
2013-08-19 14:42:00,97.7,65.4,29.92,SW,225,2.0,2.0,35,0.00,,,0.00,WeatherCatV1.15B25,2013-08-19 19:42:00,
2013-08-19 14:47:00,97.8,62.9,29.91,SE,138,0.0,4.0,32,0.00,,,0.00,WeatherCatV1.15B25,2013-08-19 19:47:00,
2013-08-19 14:52:00,97.8,64.6,29.91,SSW,206,0.0,2.0,34,0.00,,,0.00,WeatherCatV1.15B25,2013-08-19 19:52:00,
2013-08-19 14:57:00,98.1,65.7,29.91,West,271,0.0,0.0,35,0.00,,,0.00,WeatherCatV1.15B25,2013-08-19 19:57:00,
2013-08-19 15:02:00,97.8,65.4,29.90,NNE,22,0.0,2.0,35,0.00,,,0.00,WeatherCatV1.15B25,2013-08-19 20:02:00,
2013-08-19 15:07:00,97.4,66.7,29.90,NW,316,0.0,4.0,37,0.00,,,0.00,WeatherCatV1.15B25,2013-08-19 20:07:00,
2013-08-19 15:12:00,97.3,65.8,29.90,West,273,0.0,4.0,36,0.00,,,0.00,WeatherCatV1.15B25,2013-08-19 20:12:00,
2013-08-19 15:17:00,97.3,67.4,29.89,WNW,287,0.0,4.0,38,0.00,,,0.00,WeatherCatV1.15B25,2013-08-19 20:17:00,
2013-08-19 15:22:00,97.5,65.2,29.89,NNE,28,0.0,3.0,35,0.00,,,0.00,WeatherCatV1.15B25,2013-08-19 20:22:00,
2013-08-19 15:27:00,97.8,65.4,29.89,SW,231,0.0,1.0,35,0.00,,,0.00,WeatherCatV1.15B25,2013-08-19 20:27:00,
2013-08-19 15:32:00,97.9,65.5,29.89,North,11,1.0,3.0,35,0.00,,,0.00,WeatherCatV1.15B25,2013-08-19 20:32:00,
2013-08-19 15:37:00,98.1,64.9,29.89,NNE,33,0.0,0.0,34,0.00,,,0.00,WeatherCatV1.15B25,2013-08-19 20:37:00,
2013-08-19 15:42:00,98.1,62.2,29.89,SSE,168,0.0,3.0,31,0.00,,,0.00,WeatherCatV1.15B25,2013-08-19 20:42:00,
2013-08-19 15:47:00,98.2,63.2,29.88,South,179,0.0,3.0,32,0.00,,,0.00,WeatherCatV1.15B25,2013-08-19 20:47:00,
2013-08-19 15:52:00,98.3,65.0,29.88,WSW,254,2.0,3.0,34,0.00,,,0.00,WeatherCatV1.15B25,2013-08-19 20:52:00,
2013-08-19 15:57:00,98.2,65.8,29.88,WNW,298,2.0,3.0,35,0.00,,,0.00,WeatherCatV1.15B25,2013-08-19 20:57:00,
2013-08-19 16:02:00,98.1,64.9,29.87,WNW,288,0.0,4.0,34,0.00,,,0.00,WeatherCatV1.15B25,2013-08-19 21:02:00,
2013-08-19 16:07:00,98.1,64.9,29.87,NNE,25,2.0,2.0,34,0.00,,,0.00,WeatherCatV1.15B25,2013-08-19 21:07:00,
2013-08-19 16:12:00,98.3,64.2,29.87,NNE,29,0.0,0.0,33,0.00,,,0.00,WeatherCatV1.15B25,2013-08-19 21:12:00,
2013-08-19 16:17:00,98.4,64.3,29.86,West,273,0.0,0.0,33,0.00,,,0.00,WeatherCatV1.15B25,2013-08-19 21:17:00,
2013-08-19 16:22:00,98.5,65.2,29.86,NW,325,0.0,0.0,34,0.00,,,0.00,WeatherCatV1.15B25,2013-08-19 21:22:00,
2013-08-19 16:27:00,98.7,64.5,29.86,South,174,0.0,1.0,33,0.00,,,0.00,WeatherCatV1.15B25,2013-08-19 21:27:00,
2013-08-19 16:32:00,98.7,63.7,29.86,SW,215,1.0,2.0,32,0.00,,,0.00,WeatherCatV1.15B25,2013-08-19 21:32:00,
2013-08-19 16:37:00,98.5,64.4,29.86,West,261,4.0,4.0,33,0.00,,,0.00,WeatherCatV1.15B25,2013-08-19 21:37:00,
2013-08-19 16:42:00,98.3,65.0,29.86,WSW,246,1.0,1.0,34,0.00,,,0.00,WeatherCatV1.15B25,2013-08-19 21:42:00,
2013-08-19 16:47:00,98.3,65.9,29.86,NNE,13,0.0,0.0,35,0.00,,,0.00,WeatherCatV1.15B25,2013-08-19 21:47:00,
2013-08-19 16:52:00,98.5,65.2,29.86,NNW,332,0.0,1.0,34,0.00,,,0.00,WeatherCatV1.15B25,2013-08-19 21:52:00,
2013-08-19 16:57:00,98.7,65.4,29.86,NW,311,0.0,3.0,34,0.00,,,0.00,WeatherCatV1.15B25,2013-08-19 21:57:00,
2013-08-19 17:02:00,98.6,65.3,29.86,WNW,290,0.0,0.0,34,0.00,,,0.00,WeatherCatV1.15B25,2013-08-19 22:02:00,
2013-08-19 17:07:00,98.5,65.2,29.86,WSW,248,3.0,4.0,34,0.00,,,0.00,WeatherCatV1.15B25,2013-08-19 22:07:00,
2013-08-19 17:12:00,98.2,65.8,29.86,NE,40,0.0,0.0,35,0.00,,,0.00,WeatherCatV1.15B25,2013-08-19 22:12:00,
2013-08-19 17:17:00,98.2,65.0,29.85,West,261,2.0,5.0,34,0.00,,,0.00,WeatherCatV1.15B25,2013-08-19 22:17:00,
2013-08-19 17:22:00,98.1,65.7,29.85,West,264,0.0,5.0,35,0.00,,,0.00,WeatherCatV1.15B25,2013-08-19 22:22:00,
2013-08-19 17:27:00,97.9,65.5,29.85,NW,307,0.0,3.0,35,0.00,,,0.00,WeatherCatV1.15B25,2013-08-19 22:27:00,
2013-08-19 17:32:00,97.6,63.6,29.84,WNW,285,0.0,4.0,33,0.00,,,0.00,WeatherCatV1.15B25,2013-08-19 22:32:00,
2013-08-19 17:37:00,97.4,65.1,29.84,West,279,0.0,0.0,35,0.00,,,0.00,WeatherCatV1.15B25,2013-08-19 22:37:00,
2013-08-19 17:42:00,97.1,64.0,29.84,WSW,258,0.0,4.0,34,0.00,,,0.00,WeatherCatV1.15B25,2013-08-19 22:42:00,
2013-08-19 17:47:00,96.9,63.0,29.84,WSW,258,0.0,0.0,33,0.00,,,0.00,WeatherCatV1.15B25,2013-08-19 22:47:00,
2013-08-19 17:52:00,96.7,62.8,29.84,North,0,0.0,0.0,33,0.00,,,0.00,WeatherCatV1.15B25,2013-08-19 22:52:00,
2013-08-19 17:57:00,96.2,64.0,29.84,WSW,248,3.0,4.0,35,0.00,,,0.00,WeatherCatV1.15B25,2013-08-19 22:57:00,
2013-08-19 18:02:00,96.0,63.0,29.85,WSW,238,3.0,3.0,34,0.00,,,0.00,WeatherCatV1.15B25,2013-08-19 23:02:00,
2013-08-19 18:07:00,95.7,64.4,29.85,WSW,240,0.0,2.0,36,0.00,,,0.00,WeatherCatV1.15B25,2013-08-19 23:07:00,
2013-08-19 18:12:00,95.5,64.2,29.85,WSW,240,0.0,0.0,36,0.00,,,0.00,WeatherCatV1.15B25,2013-08-19 23:12:00,
2013-08-19 18:17:00,95.3,64.8,29.84,WSW,240,0.0,2.0,37,0.00,,,0.00,WeatherCatV1.15B25,2013-08-19 23:17:00,
2013-08-19 18:22:00,95.1,65.4,29.84,WNW,294,0.0,1.0,38,0.00,,,0.00,WeatherCatV1.15B25,2013-08-19 23:22:00,
2013-08-19 18:27:00,94.8,65.2,29.84,WNW,294,0.0,0.0,38,0.00,,,0.00,WeatherCatV1.15B25,2013-08-19 23:27:00,
2013-08-19 18:32:00,94.5,65.7,29.84,WNW,294,0.0,0.0,39,0.00,,,0.00,WeatherCatV1.15B25,2013-08-19 23:32:00,
2013-08-19 18:37:00,94.2,63.9,29.84,WNW,294,0.0,0.0,37,0.00,,,0.00,WeatherCatV1.15B25,2013-08-19 23:37:00,
2013-08-19 18:42:00,93.9,65.1,29.84,WNW,295,0.0,0.0,39,0.00,,,0.00,WeatherCatV1.15B25,2013-08-19 23:42:00,
2013-08-19 18:47:00,93.6,64.9,29.84,WNW,294,0.0,0.0,39,0.00,,,0.00,WeatherCatV1.15B25,2013-08-19 23:47:00,
2013-08-19 18:52:00,93.2,61.4,29.84,SE,136,0.0,3.0,35,0.00,,,0.00,WeatherCatV1.15B25,2013-08-19 23:52:00,
2013-08-19 18:57:00,93.0,64.3,29.84,ENE,61,0.0,0.0,39,0.00,,,0.00,WeatherCatV1.15B25,2013-08-19 23:57:00,
2013-08-19 19:02:00,92.8,64.2,29.84,NE,49,0.0,0.0,39,0.00,,,0.00,WeatherCatV1.15B25,2013-08-20 00:02:00,
2013-08-19 19:07:00,92.6,65.4,29.84,NE,49,0.0,2.0,41,0.00,,,0.00,WeatherCatV1.15B25,2013-08-20 00:07:00,
2013-08-19 19:12:00,92.4,65.9,29.84,NE,49,0.0,0.0,42,0.00,,,0.00,WeatherCatV1.15B25,2013-08-20 00:12:00,
2013-08-19 19:17:00,92.2,66.4,29.84,NE,49,0.0,0.0,43,0.00,,,0.00,WeatherCatV1.15B25,2013-08-20 00:17:00,
2013-08-19 19:22:00,91.9,61.9,29.84,NE,43,1.0,4.0,37,0.00,,,0.00,WeatherCatV1.15B25,2013-08-20 00:22:00,
2013-08-19 19:27:00,91.5,62.3,29.84,NE,42,0.0,0.0,38,0.00,,,0.00,WeatherCatV1.15B25,2013-08-20 00:27:00,
2013-08-19 19:32:00,91.3,61.3,29.84,SSE,154,0.0,2.0,37,0.00,,,0.00,WeatherCatV1.15B25,2013-08-20 00:32:00,
2013-08-19 19:37:00,91.0,61.1,29.84,SSE,148,0.0,0.0,37,0.00,,,0.00,WeatherCatV1.15B25,2013-08-20 00:37:00,
2013-08-19 19:42:00,90.8,62.4,29.84,ESE,113,0.0,0.0,39,0.00,,,0.00,WeatherCatV1.15B25,2013-08-20 00:42:00,
2013-08-19 19:47:00,90.6,62.9,29.85,ESE,113,0.0,0.0,40,0.00,,,0.00,WeatherCatV1.15B25,2013-08-20 00:47:00,
2013-08-19 19:52:00,90.3,62.7,29.85,ESE,113,0.0,0.0,40,0.00,,,0.00,WeatherCatV1.15B25,2013-08-20 00:52:00,
2013-08-19 19:57:00,90.0,63.8,29.85,ESE,113,0.0,0.0,42,0.00,,,0.00,WeatherCatV1.15B25,2013-08-20 00:57:00,
2013-08-19 20:02:00,89.7,62.8,29.85,ESE,113,0.0,0.0,41,0.00,,,0.00,WeatherCatV1.15B25,2013-08-20 01:02:00,
2013-08-19 20:07:00,89.3,63.8,29.85,ESE,113,0.0,0.0,43,0.00,,,0.00,WeatherCatV1.15B25,2013-08-20 01:07:00,
2013-08-19 20:12:00,88.8,63.4,29.85,ESE,113,0.0,0.0,43,0.00,,,0.00,WeatherCatV1.15B25,2013-08-20 01:12:00,
2013-08-19 20:17:00,88.3,61.6,29.85,ESE,103,0.0,0.0,41,0.00,,,0.00,WeatherCatV1.15B25,2013-08-20 01:17:00,
2013-08-19 20:22:00,87.8,62.5,29.85,ESE,118,0.0,0.0,43,0.00,,,0.00,WeatherCatV1.15B25,2013-08-20 01:22:00,
2013-08-19 20:27:00,87.4,61.5,29.85,ESE,116,0.0,1.0,42,0.00,,,0.00,WeatherCatV1.15B25,2013-08-20 01:27:00,
2013-08-19 20:32:00,86.9,62.3,29.85,ESE,107,0.0,0.0,44,0.00,,,0.00,WeatherCatV1.15B25,2013-08-20 01:32:00,
2013-08-19 20:37:00,86.5,62.0,29.85,ESE,107,0.0,0.0,44,0.00,,,0.00,WeatherCatV1.15B25,2013-08-20 01:37:00,
2013-08-19 20:42:00,86.2,61.7,29.85,ESE,107,0.0,0.0,44,0.00,,,0.00,WeatherCatV1.15B25,2013-08-20 01:42:00,
2013-08-19 20:47:00,85.8,62.0,29.85,ESE,109,0.0,0.0,45,0.00,,,0.00,WeatherCatV1.15B25,2013-08-20 01:47:00,
2013-08-19 20:52:00,85.4,61.0,29.85,SE,125,0.0,1.0,44,0.00,,,0.00,WeatherCatV1.15B25,2013-08-20 01:52:00,
2013-08-19 20:57:00,85.0,60.6,29.85,SE,124,0.0,0.0,44,0.00,,,0.00,WeatherCatV1.15B25,2013-08-20 01:57:00,
2013-08-19 21:02:00,84.6,61.5,29.86,ESE,107,0.0,0.0,46,0.00,,,0.00,WeatherCatV1.15B25,2013-08-20 02:02:00,
2013-08-19 21:07:00,84.3,60.6,29.86,ESE,107,0.0,1.0,45,0.00,,,0.00,WeatherCatV1.15B25,2013-08-20 02:07:00,
2013-08-19 21:12:00,84.0,60.3,29.86,East,94,0.0,0.0,45,0.00,,,0.00,WeatherCatV1.15B25,2013-08-20 02:12:00,
2013-08-19 21:17:00,83.8,61.4,29.86,ESE,123,0.0,2.0,47,0.00,,,0.00,WeatherCatV1.15B25,2013-08-20 02:17:00,
2013-08-19 21:22:00,83.6,60.6,29.86,ESE,108,0.0,2.0,46,0.00,,,0.00,WeatherCatV1.15B25,2013-08-20 02:22:00,
2013-08-19 21:27:00,83.3,60.3,29.86,SE,126,0.0,2.0,46,0.00,,,0.00,WeatherCatV1.15B25,2013-08-20 02:27:00,
2013-08-19 21:32:00,83.2,60.8,29.86,ESE,105,0.0,1.0,47,0.00,,,0.00,WeatherCatV1.15B25,2013-08-20 02:32:00,
2013-08-19 21:37:00,83.0,61.3,29.86,East,90,0.0,1.0,48,0.00,,,0.00,WeatherCatV1.15B25,2013-08-20 02:37:00,
2013-08-19 21:42:00,82.8,61.1,29.86,SSE,147,0.0,0.0,48,0.00,,,0.00,WeatherCatV1.15B25,2013-08-20 02:42:00,
2013-08-19 21:47:00,82.6,61.5,29.87,ENE,76,0.0,2.0,49,0.00,,,0.00,WeatherCatV1.15B25,2013-08-20 02:47:00,
2013-08-19 21:52:00,82.4,61.9,29.87,East,93,0.0,1.0,50,0.00,,,0.00,WeatherCatV1.15B25,2013-08-20 02:52:00,
2013-08-19 21:57:00,82.2,61.1,29.87,NE,40,1.0,2.0,49,0.00,,,0.00,WeatherCatV1.15B25,2013-08-20 02:57:00,
2013-08-19 22:02:00,82.0,61.5,29.88,ESE,111,0.0,0.0,50,0.00,,,0.00,WeatherCatV1.15B25,2013-08-20 03:02:00,
2013-08-19 22:07:00,81.9,62.0,29.88,ESE,102,0.0,1.0,51,0.00,,,0.00,WeatherCatV1.15B25,2013-08-20 03:07:00,
2013-08-19 22:12:00,81.7,61.8,29.88,ESE,121,0.0,0.0,51,0.00,,,0.00,WeatherCatV1.15B25,2013-08-20 03:12:00,
2013-08-19 22:17:00,81.5,61.6,29.88,ESE,119,0.0,1.0,51,0.00,,,0.00,WeatherCatV1.15B25,2013-08-20 03:17:00,
2013-08-19 22:22:00,81.3,62.0,29.88,ESE,111,0.0,0.0,52,0.00,,,0.00,WeatherCatV1.15B25,2013-08-20 03:22:00,
2013-08-19 22:27:00,81.2,62.4,29.88,ENE,72,1.0,1.0,53,0.00,,,0.00,WeatherCatV1.15B25,2013-08-20 03:27:00,
2013-08-19 22:32:00,81.0,62.2,29.88,ESE,115,0.0,1.0,53,0.00,,,0.00,WeatherCatV1.15B25,2013-08-20 03:32:00,
2013-08-19 22:37:00,80.8,62.0,29.88,East,101,0.0,4.0,53,0.00,,,0.00,WeatherCatV1.15B25,2013-08-20 03:37:00,
2013-08-19 22:42:00,80.6,62.4,29.88,SE,140,0.0,2.0,54,0.00,,,0.00,WeatherCatV1.15B25,2013-08-20 03:42:00,
2013-08-19 22:47:00,80.4,62.2,29.87,SE,128,1.0,4.0,54,0.00,,,0.00,WeatherCatV1.15B25,2013-08-20 03:47:00,
2013-08-19 22:52:00,80.3,62.1,29.87,SSE,154,0.0,1.0,54,0.00,,,0.00,WeatherCatV1.15B25,2013-08-20 03:52:00,
2013-08-19 22:57:00,80.2,62.5,29.87,South,182,0.0,0.0,55,0.00,,,0.00,WeatherCatV1.15B25,2013-08-20 03:57:00,
2013-08-19 23:01:00,80.1,62.4,29.88,SSE,168,0.0,0.0,55,0.00,,,0.00,WeatherCatV1.15B25,2013-08-20 04:01:00,
2013-08-19 23:06:00,80.0,62.4,29.88,SE,125,0.0,0.0,55,0.00,,,0.00,WeatherCatV1.15B25,2013-08-20 04:06:00,
2013-08-19 23:11:00,79.8,62.2,29.88,SE,140,0.0,4.0,55,0.00,,,0.00,WeatherCatV1.15B25,2013-08-20 04:11:00,
2013-08-19 23:16:00,79.8,62.7,29.87,East,91,0.0,2.0,56,0.00,,,0.00,WeatherCatV1.15B25,2013-08-20 04:16:00,
2013-08-19 23:21:00,79.6,62.5,29.87,ESE,108,0.0,2.0,56,0.00,,,0.00,WeatherCatV1.15B25,2013-08-20 04:21:00,
2013-08-19 23:26:00,79.5,62.4,29.87,SE,138,2.0,3.0,56,0.00,,,0.00,WeatherCatV1.15B25,2013-08-20 04:26:00,
2013-08-19 23:31:00,79.4,62.3,29.88,SE,129,0.0,0.0,56,0.00,,,0.00,WeatherCatV1.15B25,2013-08-20 04:31:00,
2013-08-19 23:36:00,79.3,62.7,29.88,ESE,123,0.0,1.0,57,0.00,,,0.00,WeatherCatV1.15B25,2013-08-20 04:36:00,
2013-08-19 23:41:00,79.1,62.0,29.88,ENE,74,0.0,0.0,56,0.00,,,0.00,WeatherCatV1.15B25,2013-08-20 04:41:00,
2013-08-19 23:46:00,78.9,62.3,29.88,SE,146,0.0,0.0,57,0.00,,,0.00,WeatherCatV1.15B25,2013-08-20 04:46:00,
2013-08-19 23:51:00,78.8,61.8,29.88,ESE,103,0.0,2.0,56,0.00,,,0.00,WeatherCatV1.15B25,2013-08-20 04:51:00,
2013-08-19 23:56:00,78.7,62.7,29.88,ESE,103,0.0,0.0,58,0.00,,,0.00,WeatherCatV1.15B25,2013-08-20 04:56:00,